Regional Weather Roundup
Issued by NWS

Home | Current Version | Previous Version | Text Only | Print | Product List | Glossary On
Versions: 1 2 3 4 5 6 7 8 9 10 11 12 13 14 15 16 17 18 19 20 21 22 23 24 25 26 27 28 29 30 31 32 33 34 35 36 37 38 39 40 41 42 43 44 45 46 47 48 49 50
000
ASUS43 KFSD 192210
RWRSD

WEATHER ROUNDUP FOR SOUTH DAKOTA
NATIONAL WEATHER SERVICE SIOUX FALLS SD
500 PM CDT THU APR 19 2018

NOTE: "FAIR" INDICATES FEW OR NO CLOUDS BELOW 12,000 FEET WITH NO
SIGNIFICANT WEATHER AND/OR OBSTRUCTIONS TO VISIBILITY.


SDZ001>005-009-010-012>017-192300-
NORTHWEST AND NORTH CENTRAL SOUTH DAKOTA

CITY           SKY/WX    TMP DP  RH WIND       PRES   REMARKS
BUFFALO          N/A     57  28  33 E21G28    30.13F
FAITH            N/A     55  34  45 SE15      30.25F
MOBRIDGE       MOSUNNY   56  33  42 SE13      30.31F
$$

SDZ012>016-024>037-041>051-057-063-072>074-192300-
SOUTHWEST AND SOUTH CENTRAL SOUTH DAKOTA

CITY           SKY/WX    TMP DP  RH WIND       PRES   REMARKS
RAPID CTY ARPT PTSUNNY   58  32  37 E15G30    30.18F
PIERRE         MOSUNNY   49  31  49 SE17      30.33F
CUSTER         MOSUNNY   49  24  37 SE13G22   30.18F
ELLSWORTH AFB  PTSUNNY   58  33  38 SE18      30.18F
PHILIP         PTSUNNY   54  32  43 SE16      30.26F
PINE RIDGE     MOSUNNY   60  29  30 SE15G22   30.18F
SPEARFISH      FAIR      59  28  31 SE21      30.13F
WINNER         FAIR      47  30  51 SE14      30.35F
$$

SDZ004>011-016>023-039-040-192300-
NORTHEAST SOUTH DAKOTA

CITY           SKY/WX    TMP DP  RH WIND       PRES   REMARKS
ABERDEEN       SUNNY     56  33  42 S8        30.39F
WATERTOWN      SUNNY     49  30  48 VRB3      30.41S
BROOKINGS      SUNNY     47  23  38 SW7       30.44S
SISSETON         N/A     54  27  35 SW9       30.40F
$$

SDZ017-020-022-023-036>040-048>070-192300-
SOUTHEAST SOUTH DAKOTA

CITY           SKY/WX    TMP DP  RH WIND       PRES   REMARKS
SIOUX FALLS    PTSUNNY   45  22  40 SE7       30.44F
HURON          MOSUNNY   45  29  53 S8        30.42F
CHAMBERLAIN    PTSUNNY   49  29  45 SE14      30.38F
MITCHELL       PTSUNNY   43  33  68 E7        30.44F
YANKTON        SUNNY     50  27  40 E9        30.42F
$$

ABBREVIATIONS USED IN REMARKS
   TC - TEMPERATURE IN CELSIUS
  WCI - WIND CHILL INDEX
   HX - HEAT INDEX
  VSB - VISIBILITY




USA.gov is the U.S. government's official web portal to all federal, state and local government web resources and services.